Location: Newark
(30.1000°N, 109.4667°E)
Time: 23:13:50
(UTC+00:00)

SR - Pass Details

Date: 24 February 2020
Orbit: 577 x 878 km, 66.7° (Epoch: 28 March)

Event Time Altitude Azimuth Distance (km) Brightness Sun altitude
Rises 16:34:54 0° 340° (NNW) 3,198 - -68.8°
Reaches altitude 10° 16:37:27 10° 345° (NNW) 2,220 - -69.0°
Maximum altitude 16:42:21 53° 62° (ENE) 834 - -69.2°
Drops below altitude 10° 16:46:49 10° 140° (SE) 2,025 - -69.3°
Sets 16:49:03 0° 145° (SE) 2,890 - -69.3°
